Flag for U.S.A. Weather past 2 weeks in Hollywood, California, U.S.A.

Now
92 °F

Sunny.


Feels Like: 88 °F
Forecast: 62 / 87 °F
Wind: No wind

Location: Van Nuys Airport

Current Time: Aug 27, 2014 at 12:17:38 PM

Latest Report: Aug 27, 2014 at 11:51 AM


Visibility: 10 mi

Pressure: 30.00 "Hg

Humidity: 19%

Dew point: 44 °F

Location of HollywoodLocation

Historic Weather in Hollywood — Graph

°F

Hollywood temperature yesterday

Maximum temperature yesterday: 89 °F (at 2:51 PM)
Minimum temperature yesterday: 63 °F (at 6:51 AM)
Average temperature yesterday: 76 °F

Past Weeks' High & Low Weather Summary

 TemperatureHumidityPressure
High98 °F (Aug 16, 2:51 PM)87% (Aug 14, 2:51 AM)30.02 "Hg (Aug 14, 2:51 AM)
Low62 °F (Aug 25, 6:51 AM)11% (Aug 16, 6:51 PM)29.73 "Hg (Aug 18, 3:51 PM)
Average76 °F51%29.90 "Hg
* Reported Aug 12 10:51 AM — Aug 27 10:51 AM, Hollywood, Weather by CustomWeather, © 2014

Note: Actual official high and low records may vary slightly from our data, if they occured in-between our weather recording intervals... More about our weather records

Advertising

Hollywood weather history for previous 24 hours

 ConditionsComfort  
Time TempWeatherWind HumidityBarometerVisibility
10:51 AM
Aug 27
88 °FSunny.No wind22%30.02 "Hg10 mi
9:51 AM82 °FSunny.No wind29%30.02 "Hg10 mi
8:51 AM76 °FSunny.No wind37%30.02 "Hg10 mi
7:51 AM70 °FSunny.No wind51%30.02 "Hg10 mi
6:51 AM67 °FClear.3 mph61%30.01 "Hg10 mi
5:51 AM68 °FClear.No wind53%30.00 "Hg10 mi
4:51 AM67 °FClear.No wind57%29.98 "Hg10 mi
3:51 AM70 °FClear.No wind55%29.98 "Hg10 mi
2:51 AM69 °FClear.3 mph57%29.97 "Hg10 mi
1:51 AM71 °FClear.No wind55%29.97 "Hg10 mi
12:51 AM73 °FClear.No wind50%29.96 "Hg10 mi
11:51 PM
Aug 26
74 °FClear.3 mph48%29.96 "Hg10 mi
10:51 PM76 °FClear.No wind37%29.96 "Hg10 mi
9:51 PM77 °FClear.No wind36%29.95 "Hg10 mi
8:51 PM79 °FClear.No wind26%29.94 "Hg10 mi
7:51 PM81 °FSunny.3 mph27%29.91 "Hg10 mi
6:51 PM85 °FSunny.7 mph23%29.89 "Hg10 mi
5:51 PM87 °FSunny.9 mph21%29.89 "Hg10 mi
4:51 PM88 °FSunny.10 mph22%29.89 "Hg10 mi
3:51 PM88 °FSunny.10 mph24%29.90 "Hg10 mi
2:51 PM89 °FSunny.10 mph24%29.91 "Hg10 mi
1:51 PM87 °FSunny.12 mph33%29.93 "Hg10 mi
12:51 PM87 °FSunny.7 mph36%29.94 "Hg10 mi
Weather by CustomWeather, © 2014

See weather overviewHow to use our weather pages